AFL5011 USSS-USCM

Flight info

Callsign AFL5011
Flight time 0h 44m
Altitude 29000
Route MIKUS6K MIKUS T374 IMANA L992 ETREL ETREL1F
Aircraft A321/M-SDE3FGHIRWY/LB1

Departure

Time 2026-04-27 17:13
Airport Koltsovo Airport (USSS)

Arrival

Time 2026-04-27 17:57
Airport Magnitogorsk International Airport (USCM)
Time Latitude Longitude Altitude Speed Heading
2026-04-27 16:43 56.74929 60.80045 751 ft 0 kts 360°
2026-04-27 17:02 56.74919 60.80045 756 ft 4 kts
2026-04-27 17:02 56.74899 60.80038 751 ft 4 kts 321°
2026-04-27 17:03 56.74889 60.80062 754 ft 4 kts 268°
2026-04-27 17:03 56.74889 60.80080 751 ft 0 kts 271°
2026-04-27 17:03 56.74884 60.80100 754 ft 4 kts
2026-04-27 17:03 56.74860 60.80104 751 ft 4 kts 313°
2026-04-27 17:04 56.74853 60.80120 754 ft 0 kts 271°
2026-04-27 17:05 56.74853 60.80119 754 ft 0 kts 271°
2026-04-27 17:05 56.74853 60.80104 754 ft 4 kts 271°
2026-04-27 17:05 56.74854 60.80022 755 ft 9 kts 269°
2026-04-27 17:05 56.74854 60.79864 755 ft 15 kts 270°
2026-04-27 17:06 56.74854 60.79674 752 ft 15 kts 269°
2026-04-27 17:06 56.74855 60.79486 753 ft 15 kts 272°
2026-04-27 17:06 56.74855 60.79300 751 ft 15 kts 269°
2026-04-27 17:06 56.74856 60.79117 747 ft 14 kts 272°
2026-04-27 17:07 56.74859 60.78935 746 ft 14 kts 272°
2026-04-27 17:07 56.74861 60.78754 745 ft 14 kts 270°
2026-04-27 17:07 56.74860 60.78575 745 ft 14 kts 271°
2026-04-27 17:07 56.74860 60.78397 746 ft 14 kts 271°
2026-04-27 17:08 56.74859 60.78221 744 ft 14 kts 262°
2026-04-27 17:08 56.74791 60.78150 744 ft 12 kts 181°
2026-04-27 17:08 56.74713 60.78146 744 ft 11 kts 182°
2026-04-27 17:08 56.74640 60.78148 744 ft 10 kts 180°
2026-04-27 17:09 56.74618 60.78148 745 ft 0 kts 180°
2026-04-27 17:09 56.74586 60.78147 745 ft 10 kts 181°
2026-04-27 17:10 56.74475 60.78143 745 ft 21 kts 180°
2026-04-27 17:10 56.74338 60.78057 744 ft 20 kts 204°
2026-04-27 17:10 56.74229 60.78106 742 ft 17 kts 115°
2026-04-27 17:10 56.74224 60.78142 742 ft 0 kts 94°
2026-04-27 17:12 56.74197 60.78727 744 ft 82 kts 95°
2026-04-27 17:12 56.74140 60.80117 750 ft 138 kts 95°
2026-04-27 17:12 56.74056 60.82128 848 ft 174 kts 98°
2026-04-27 17:13 56.73974 60.84445 1236 ft 192 kts 94°
2026-04-27 17:13 56.73942 60.87023 1577 ft 215 kts 95°
2026-04-27 17:13 56.73918 60.89902 1915 ft 239 kts 98°
2026-04-27 17:13 56.73897 60.93013 2490 ft 249 kts 98°
2026-04-27 17:14 56.73883 60.96194 3176 ft 254 kts 97°
2026-04-27 17:14 56.73867 60.99445 3917 ft 258 kts 97°
2026-04-27 17:14 56.73498 61.02628 4474 ft 258 kts 127°
2026-04-27 17:14 56.72231 61.04770 5159 ft 248 kts 162°
2026-04-27 17:15 56.70556 61.05055 5906 ft 245 kts 196°
2026-04-27 17:15 56.69130 61.03403 6615 ft 251 kts 231°
2026-04-27 17:15 56.68509 61.00403 7312 ft 264 kts 265°
2026-04-27 17:15 56.68770 60.97039 8029 ft 274 kts 281°
2026-04-27 17:16 56.69359 60.93653 8792 ft 279 kts 285°
2026-04-27 17:16 56.69991 60.90349 9519 ft 282 kts 284°
2026-04-27 17:16 56.70598 60.86918 10015 ft 285 kts 283°
2026-04-27 17:16 56.71147 60.83371 10282 ft 301 kts 281°
2026-04-27 17:17 56.71668 60.79542 10435 ft 323 kts 279°
2026-04-27 17:17 56.72179 60.75433 10604 ft 341 kts 279°
2026-04-27 17:17 56.72687 60.71159 11106 ft 347 kts 279°
2026-04-27 17:18 56.72617 60.62542 12356 ft 343 kts 248°
2026-04-27 17:18 56.71463 60.58781 12997 ft 342 kts 230°
2026-04-27 17:18 56.69687 60.55924 13628 ft 344 kts 212°
2026-04-27 17:18 56.67485 60.54188 14160 ft 348 kts 201°
2026-04-27 17:19 56.65184 60.52751 14696 ft 350 kts 200°
2026-04-27 17:19 56.62872 60.51320 15193 ft 353 kts 200°
2026-04-27 17:19 56.60535 60.49873 15698 ft 356 kts 200°
2026-04-27 17:19 56.58188 60.48418 16194 ft 358 kts 200°
2026-04-27 17:20 56.55823 60.46947 16699 ft 360 kts 200°
2026-04-27 17:20 56.53445 60.45463 17187 ft 363 kts 200°
2026-04-27 17:20 56.51054 60.43975 17658 ft 365 kts 200°
2026-04-27 17:20 56.48646 60.42479 18151 ft 366 kts 200°
2026-04-27 17:21 56.46231 60.40980 18587 ft 368 kts 200°
2026-04-27 17:21 56.43808 60.39479 18981 ft 369 kts 200°
2026-04-27 17:21 56.41373 60.37971 19374 ft 370 kts 200°
2026-04-27 17:21 56.38931 60.36464 19755 ft 372 kts 200°
2026-04-27 17:22 56.36478 60.34955 20147 ft 373 kts 200°
2026-04-27 17:22 56.34017 60.33436 20534 ft 374 kts 200°
2026-04-27 17:22 56.31548 60.31909 20945 ft 376 kts 200°
2026-04-27 17:22 56.29072 60.30386 21330 ft 378 kts 200°
2026-04-27 17:23 56.26579 60.28856 21724 ft 379 kts 200°
2026-04-27 17:23 56.24074 60.27319 22066 ft 382 kts 200°
2026-04-27 17:23 56.21547 60.25773 22449 ft 384 kts 200°
2026-04-27 17:23 56.19018 60.24226 22862 ft 386 kts 200°
2026-04-27 17:24 56.16470 60.22667 23269 ft 388 kts 200°
2026-04-27 17:24 56.13908 60.21106 23664 ft 389 kts 200°
2026-04-27 17:24 56.11344 60.19545 24024 ft 389 kts 200°
2026-04-27 17:24 56.08812 60.18005 24382 ft 390 kts 200°
2026-04-27 17:25 56.06233 60.16457 24709 ft 392 kts 200°
2026-04-27 17:25 56.03639 60.14953 25019 ft 393 kts 199°
2026-04-27 17:25 56.01021 60.13471 25330 ft 395 kts 199°
2026-04-27 17:25 55.98392 60.11998 25663 ft 396 kts 199°
2026-04-27 17:26 55.95787 60.10544 26220 ft 391 kts 199°
2026-04-27 17:26 55.93188 60.09093 26609 ft 391 kts 199°
2026-04-27 17:26 55.90599 60.07643 27012 ft 390 kts 199°
2026-04-27 17:26 55.88004 60.06182 27303 ft 392 kts 200°
2026-04-27 17:27 55.85401 60.04713 27575 ft 394 kts 200°
2026-04-27 17:27 55.82782 60.03237 27866 ft 396 kts 200°
2026-04-27 17:27 55.80146 60.01755 28163 ft 398 kts 200°
2026-04-27 17:27 55.77503 60.00283 28450 ft 399 kts 200°
2026-04-27 17:28 55.74855 59.98762 28725 ft 401 kts 200°
2026-04-27 17:28 55.72189 59.97260 28963 ft 404 kts 200°
2026-04-27 17:28 55.66753 59.94226 29054 ft 416 kts 200°
2026-04-27 17:29 55.63962 59.92682 29056 ft 422 kts 200°
2026-04-27 17:29 55.58295 59.89543 29058 ft 430 kts 200°
2026-04-27 17:30 55.52579 59.86389 29053 ft 431 kts 199°
2026-04-27 17:30 55.43983 59.81674 29052 ft 431 kts 200°
2026-04-27 17:31 55.38312 59.78550 29050 ft 429 kts 199°
2026-04-27 17:31 55.32613 59.75435 29051 ft 429 kts 199°
2026-04-27 17:32 55.24071 59.70793 29047 ft 429 kts 199°
2026-04-27 17:33 55.18373 59.67698 29043 ft 430 kts 199°
2026-04-27 17:33 55.12642 59.64599 29040 ft 431 kts 199°
2026-04-27 17:34 55.06907 59.61498 29045 ft 431 kts 199°
2026-04-27 17:34 55.04059 59.59967 29047 ft 420 kts 199°
2026-04-27 17:34 55.01316 59.58501 28670 ft 408 kts 199°
2026-04-27 17:34 54.98631 59.57066 28257 ft 401 kts 199°
2026-04-27 17:35 54.95973 59.55648 27779 ft 398 kts 199°
2026-04-27 17:35 54.93340 59.54239 27311 ft 395 kts 199°
2026-04-27 17:35 54.90724 59.52837 26825 ft 392 kts 199°
2026-04-27 17:35 54.88129 59.51445 26377 ft 389 kts 199°
2026-04-27 17:36 54.85553 59.50065 25870 ft 386 kts 199°
2026-04-27 17:36 54.82990 59.48696 25341 ft 384 kts 199°
2026-04-27 17:36 54.80441 59.47337 24858 ft 382 kts 199°
2026-04-27 17:36 54.77912 59.45991 24379 ft 380 kts 199°
2026-04-27 17:37 54.75390 59.44658 23926 ft 377 kts 199°
2026-04-27 17:37 54.72888 59.43345 23425 ft 375 kts 198°
2026-04-27 17:37 54.70403 59.42037 22889 ft 371 kts 199°
2026-04-27 17:37 54.67951 59.40742 22348 ft 367 kts 199°
2026-04-27 17:38 54.65541 59.39466 21824 ft 365 kts 199°
2026-04-27 17:38 54.63088 59.38170 21306 ft 363 kts 199°
2026-04-27 17:38 54.60684 59.36906 20794 ft 360 kts 199°
2026-04-27 17:38 54.58296 59.35654 20290 ft 358 kts 198°
2026-04-27 17:39 54.55919 59.34408 19788 ft 356 kts 198°
2026-04-27 17:39 54.53565 59.33175 19302 ft 353 kts 198°
2026-04-27 17:39 54.51221 59.31949 18824 ft 351 kts 198°
2026-04-27 17:39 54.48910 59.30740 18335 ft 351 kts 198°
2026-04-27 17:40 54.46547 59.29507 17787 ft 350 kts 198°
2026-04-27 17:40 54.44224 59.28296 17241 ft 348 kts 199°
2026-04-27 17:40 54.41912 59.27092 16668 ft 346 kts 199°
2026-04-27 17:40 54.39611 59.25897 16100 ft 344 kts 199°
2026-04-27 17:41 54.37327 59.24710 15543 ft 342 kts 199°
2026-04-27 17:41 54.35061 59.23531 15016 ft 340 kts 199°
2026-04-27 17:41 54.32805 59.22358 14480 ft 337 kts 199°
2026-04-27 17:41 54.30564 59.21194 13954 ft 335 kts 199°
2026-04-27 17:42 54.28343 59.20043 13373 ft 334 kts 199°
2026-04-27 17:42 54.26153 59.18915 12806 ft 331 kts 199°
2026-04-27 17:42 54.23959 59.17786 12227 ft 328 kts 199°
2026-04-27 17:42 54.21780 59.16662 11672 ft 326 kts 199°
2026-04-27 17:43 54.19617 59.15545 11116 ft 324 kts 198°
2026-04-27 17:43 54.17467 59.14436 10574 ft 321 kts 198°
2026-04-27 17:43 54.16026 59.13692 10209 ft 319 kts 198°
2026-04-27 17:43 54.13228 59.12252 9436 ft 313 kts 198°
2026-04-27 17:44 54.11211 59.11223 8847 ft 292 kts 198°
2026-04-27 17:44 54.09326 59.10264 8278 ft 274 kts 198°
2026-04-27 17:44 54.07513 59.09342 7722 ft 272 kts 198°
2026-04-27 17:44 54.05699 59.08414 7172 ft 273 kts 198°
2026-04-27 17:45 54.03880 59.07479 6617 ft 273 kts 198°
2026-04-27 17:45 54.02068 59.06548 6058 ft 272 kts 198°
2026-04-27 17:45 54.00256 59.05628 5487 ft 271 kts 197°
2026-04-27 17:45 53.98463 59.04727 5086 ft 264 kts 196°
2026-04-27 17:46 53.97316 59.04153 5019 ft 254 kts 196°
2026-04-27 17:46 53.95686 59.03336 5023 ft 237 kts 196°
2026-04-27 17:46 53.93592 59.02284 5033 ft 234 kts 196°
2026-04-27 17:46 53.92557 59.01765 5033 ft 233 kts 196°
2026-04-27 17:47 53.91000 59.00984 5037 ft 233 kts 197°
2026-04-27 17:47 53.89951 59.00458 5035 ft 233 kts 197°
2026-04-27 17:47 53.87369 58.99166 5029 ft 233 kts 197°
2026-04-27 17:47 53.86341 58.98652 5028 ft 233 kts 197°
2026-04-27 17:48 53.84792 58.97879 5029 ft 233 kts 197°
2026-04-27 17:48 53.83238 58.97105 5026 ft 233 kts 197°
2026-04-27 17:48 53.81686 58.96332 5013 ft 233 kts 197°
2026-04-27 17:48 53.80128 58.95553 5032 ft 234 kts 197°
2026-04-27 17:49 53.78567 58.94774 5032 ft 234 kts 197°
2026-04-27 17:49 53.77012 58.93995 5032 ft 234 kts 197°
2026-04-27 17:49 53.75455 58.93201 5029 ft 234 kts 197°
2026-04-27 17:49 53.73890 58.92422 5032 ft 234 kts 197°
2026-04-27 17:50 53.72323 58.91652 5033 ft 235 kts 197°
2026-04-27 17:50 53.69192 58.90115 5031 ft 234 kts 197°
2026-04-27 17:50 53.67632 58.89350 5030 ft 234 kts 197°
2026-04-27 17:51 53.66117 58.88609 5030 ft 218 kts 197°
2026-04-27 17:51 53.64716 58.87923 5022 ft 204 kts 197°
2026-04-27 17:51 53.64277 58.87708 5039 ft 203 kts 197°
2026-04-27 17:52 53.60631 58.85925 5036 ft 201 kts 197°
2026-04-27 17:52 53.59286 58.85268 5029 ft 201 kts 197°
2026-04-27 17:52 53.57967 58.84625 4960 ft 191 kts 197°
2026-04-27 17:52 53.56734 58.84024 4747 ft 176 kts 197°
2026-04-27 17:53 53.55631 58.83486 4549 ft 156 kts 196°
2026-04-27 17:53 53.54619 58.82992 4336 ft 148 kts 195°
2026-04-27 17:53 53.53641 58.82516 4134 ft 145 kts 195°
2026-04-27 17:53 53.52679 58.82048 3937 ft 143 kts 195°
2026-04-27 17:54 53.51720 58.81581 3739 ft 146 kts 195°
2026-04-27 17:54 53.50739 58.81105 3553 ft 147 kts 195°
2026-04-27 17:54 53.49756 58.80627 3353 ft 147 kts 194°
2026-04-27 17:54 53.48773 58.80149 3153 ft 147 kts 194°
2026-04-27 17:55 53.47795 58.79674 2945 ft 145 kts 194°
2026-04-27 17:55 53.46853 58.79216 2748 ft 133 kts 194°
2026-04-27 17:55 53.45983 58.78794 2571 ft 128 kts 194°
2026-04-27 17:55 53.45130 58.78381 2397 ft 128 kts 194°
2026-04-27 17:56 53.44264 58.77962 2208 ft 133 kts 193°
2026-04-27 17:56 53.43358 58.77524 1987 ft 141 kts 194°
2026-04-27 17:56 53.42402 58.77068 1804 ft 145 kts 194°
2026-04-27 17:56 53.41427 58.76576 1554 ft 146 kts 194°
2026-04-27 17:57 53.40450 58.76111 1416 ft 145 kts 195°
2026-04-27 17:57 53.39591 58.75702 1417 ft 106 kts 195°
2026-04-27 17:57 53.39049 58.75446 1426 ft 56 kts 195°
2026-04-27 17:57 53.38773 58.75309 1428 ft 38 kts 195°
2026-04-27 17:58 53.38527 58.75190 1433 ft 36 kts 197°
2026-04-27 17:58 53.38294 58.75076 1434 ft 34 kts 195°
2026-04-27 17:58 53.38065 58.74972 1435 ft 34 kts 193°
2026-04-27 17:58 53.37959 58.74971 1436 ft 10 kts 175°
2026-04-27 17:59 53.37957 58.74924 1436 ft 6 kts 348°
2026-04-27 17:59 53.38063 58.74971 1435 ft 28 kts 15°
2026-04-27 17:59 53.38324 58.75097 1434 ft 47 kts 17°
2026-04-27 17:59 53.38649 58.75251 1431 ft 49 kts 14°
2026-04-27 18:00 53.38982 58.75408 1426 ft 50 kts 16°
2026-04-27 18:00 53.39266 58.75545 1423 ft 25 kts 16°
2026-04-27 18:00 53.39358 58.75726 1420 ft 22 kts 95°
2026-04-27 18:00 53.39352 58.75777 1420 ft 0 kts 107°
2026-04-27 18:02 53.39329 58.75904 1420 ft 15 kts 106°
2026-04-27 18:02 53.39275 58.75989 1421 ft 12 kts 181°
2026-04-27 18:02 53.39142 58.75932 1423 ft 20 kts 196°
2026-04-27 18:03 53.39093 58.75849 1423 ft 0 kts 283°